Weather History for Wise, VA

Change the Weather History Date:

Thursday, March 29, 2012

  Actual Average Record
Temperature  
Mean Temperature 61 °F -  
Max Temperature 69 °F 56 °F 75 °F (1998)
Min Temperature 53 °F 37 °F 28 °F (2011)
Degree Days  
Heating Degree Days 4    
Growing Degree Days 11 (Base 50)    
Moisture  
Dew Point 46 °F    
Average Humidity 57    
Maximum Humidity 82    
Minimum Humidity 35    
Precipitation  
Precipitation 0.00 in - - ()
Sea Level Pressure  
Sea Level Pressure 30.02 in    
Wind  
Wind Speed 9 mph (NW)    
Max Wind Speed 14 mph    
Max Gust Speed 22 mph    
Visibility 10 miles    
Events Rain    
Averages and records for this station are not official NWS values.
T = Trace of Precipitation, MM = Missing Value Source: NWS Daily Summary

Daily Weather History Graph

Daily Weather History Graph

Search for Another Location

Airport:

Trip Planner

Search our weather history database for the weather conditions in past years. The results will help you decide how hot, cold, wet, or windy it might be!

Date:

Astronomy

Mar. 29, 2012 Rise Set
Actual Time 7:19 AM EDT 7:50 PM EDT
Civil Twilight 6:53 AM EDT 8:16 PM EDT
Nautical Twilight 6:22 AM EDT 8:47 PM EDT
Astronomical Twilight 5:51 AM EDT 9:18 PM EDT
Moon 11:34 AM EDT (3/29) 1:33 AM EDT (3/29)
Length of Visible Light 13h 22m
Length of Day
12h 30m
Waxing Crescent, 39% of the Moon is Illuminated
Mar 29
Waxing Crescent
Mar 30
First Quarter
Apr 6
Full
Apr 13
Last Quarter
Apr 21
New

Hourly Weather History & Observations

Time (EDT) Temp. Dew Point Humidity Pressure Visibility Wind Dir Wind Speed Gust Speed Precip Events Conditions
12:15 AM 64.4 °F 55.4 °F 73% 30.01 in 10.0 mi West 12.7 mph 21.9 mph N/A   Scattered Clouds
12:35 AM 62.6 °F 55.4 °F 77% 30.01 in 10.0 mi WNW 11.5 mph 19.6 mph N/A   Clear
12:55 AM 62.6 °F 53.6 °F 72% 30.02 in 10.0 mi WNW 11.5 mph 17.3 mph N/A   Mostly Cloudy
1:15 AM 62.6 °F 53.6 °F 72% 30.01 in 10.0 mi WNW 10.4 mph 16.1 mph N/A   Mostly Cloudy
1:35 AM 62.6 °F 53.6 °F 72% 30.02 in 10.0 mi NW 6.9 mph 18.4 mph N/A Rain Light Rain
1:55 AM 62.6 °F 53.6 °F 72% 30.01 in 10.0 mi WNW 9.2 mph - N/A   Overcast
2:15 AM 62.6 °F 53.6 °F 72% 30.01 in 10.0 mi WNW 6.9 mph - N/A   Overcast
2:35 AM 60.8 °F 53.6 °F 77% 30.01 in 10.0 mi WNW 8.1 mph - N/A   Mostly Cloudy
2:55 AM 62.6 °F 53.6 °F 72% 30.01 in 10.0 mi West 12.7 mph - N/A Rain Rain
3:15 AM 60.8 °F 50.0 °F 68% 30.00 in 10.0 mi WNW 9.2 mph - N/A   Scattered Clouds
3:35 AM 60.8 °F 50.0 °F 68% 30.00 in 10.0 mi WNW 10.4 mph 17.3 mph N/A   Mostly Cloudy
3:55 AM 60.8 °F 50.0 °F 68% 29.99 in 10.0 mi NW 8.1 mph - N/A   Scattered Clouds
4:15 AM 60.8 °F 50.0 °F 68% 29.98 in 10.0 mi NW 6.9 mph - N/A   Clear
4:35 AM 60.8 °F 50.0 °F 68% 30.00 in 10.0 mi NW 5.8 mph - N/A   Clear
4:55 AM 59.0 °F 50.0 °F 72% 29.99 in 10.0 mi NW 6.9 mph - N/A   Clear
5:15 AM 59.0 °F 50.0 °F 72% 29.99 in 10.0 mi NNW 6.9 mph - N/A   Clear
5:35 AM 57.2 °F 50.0 °F 77% 30.00 in 10.0 mi NW 5.8 mph - N/A   Clear
5:55 AM 57.2 °F 50.0 °F 77% 30.00 in 10.0 mi NNW 4.6 mph - N/A   Clear
6:15 AM 55.4 °F 50.0 °F 82% 30.00 in 10.0 mi NNW 5.8 mph - N/A   Clear
6:35 AM 55.4 °F 50.0 °F 82% 30.01 in 10.0 mi NNW 4.6 mph - N/A   Clear
6:55 AM 55.4 °F 50.0 °F 82% 30.01 in 10.0 mi NW 4.6 mph - N/A   Clear
7:15 AM 55.4 °F 48.2 °F 77% 30.02 in 10.0 mi NW 3.5 mph - N/A   Clear
7:35 AM 53.6 °F 48.2 °F 82% 30.02 in 10.0 mi NNW 4.6 mph - N/A   Clear
7:55 AM 55.4 °F 48.2 °F 77% 30.03 in 10.0 mi NW 4.6 mph - N/A   Scattered Clouds
8:15 AM 55.4 °F 48.2 °F 77% 30.04 in 10.0 mi NW 4.6 mph - N/A   Clear
8:35 AM 55.4 °F 44.6 °F 67% 30.05 in 10.0 mi NW 5.8 mph - N/A   Clear
8:55 AM 57.2 °F 44.6 °F 63% 30.04 in 10.0 mi NW 6.9 mph - N/A   Clear
9:15 AM 57.2 °F 44.6 °F 63% 30.04 in 10.0 mi NNW 6.9 mph - N/A   Clear
9:35 AM 59.0 °F 44.6 °F 59% 30.04 in 10.0 mi NW 9.2 mph - N/A   Clear
9:55 AM 59.0 °F 44.6 °F 59% 30.05 in 10.0 mi NNW 6.9 mph - N/A   Clear
10:15 AM 60.8 °F 44.6 °F 55% 30.05 in 10.0 mi NNW 6.9 mph - N/A   Clear
10:35 AM 60.8 °F 42.8 °F 52% 30.06 in 10.0 mi NW 6.9 mph - N/A   Clear
11:35 AM 62.6 °F 41.0 °F 45% 30.07 in 10.0 mi NW 6.9 mph - N/A   Clear
11:55 AM 64.4 °F 41.0 °F 42% 30.07 in 10.0 mi NNW 10.4 mph - N/A   Clear
12:15 PM 64.4 °F 42.8 °F 45% 30.07 in 10.0 mi NNW 10.4 mph - N/A   Clear
12:35 PM 66.2 °F 41.0 °F 40% 30.07 in 10.0 mi NNW 9.2 mph - N/A   Clear
12:55 PM 68.0 °F 42.8 °F 40% 30.06 in 10.0 mi NNW 9.2 mph 16.1 mph N/A   Clear
1:15 PM 68.0 °F 42.8 °F 40% 30.06 in 10.0 mi NNW 9.2 mph - N/A   Clear
1:35 PM 68.0 °F 41.0 °F 37% 30.05 in 10.0 mi NNW 9.2 mph 16.1 mph N/A   Clear
1:55 PM 68.0 °F 44.6 °F 43% 30.05 in 10.0 mi NW 10.4 mph 16.1 mph N/A   Clear
2:15 PM 69.8 °F 42.8 °F 38% 30.04 in 10.0 mi West 10.4 mph 18.4 mph N/A   Clear
2:35 PM 69.8 °F 42.8 °F 38% 30.04 in 10.0 mi West 13.8 mph 19.6 mph N/A   Clear
2:55 PM 69.8 °F 42.8 °F 38% 30.03 in 10.0 mi NW 8.1 mph 18.4 mph N/A   Clear
3:15 PM 69.8 °F 42.8 °F 38% 30.02 in 10.0 mi NW 9.2 mph - N/A   Clear
3:35 PM 69.8 °F 42.8 °F 38% 30.02 in 10.0 mi NW 9.2 mph - N/A   Clear
3:55 PM 69.8 °F 42.8 °F 38% 30.02 in 10.0 mi WNW 10.4 mph 20.7 mph N/A   Clear
4:15 PM 69.8 °F 41.0 °F 35% 30.02 in 10.0 mi WNW 9.2 mph 18.4 mph N/A   Clear
4:35 PM 69.8 °F 42.8 °F 38% 30.01 in 10.0 mi West 8.1 mph - N/A   Clear
4:55 PM 69.8 °F 42.8 °F 38% 30.01 in 10.0 mi North 9.2 mph 17.3 mph N/A   Clear
5:15 PM 69.8 °F 44.6 °F 40% 30.01 in 10.0 mi West 6.9 mph - N/A   Clear
5:35 PM 68.0 °F 41.0 °F 37% 30.01 in 10.0 mi West 11.5 mph - N/A   Clear
5:55 PM 68.0 °F 39.2 °F 35% 30.01 in 10.0 mi WNW 10.4 mph 18.4 mph N/A   Clear
6:15 PM 68.0 °F 39.2 °F 35% 30.00 in 10.0 mi WNW 6.9 mph - N/A   Clear
6:35 PM 68.0 °F 41.0 °F 37% 30.00 in 10.0 mi NW 5.8 mph - N/A   Clear
6:55 PM 64.4 °F 39.2 °F 40% 30.00 in 10.0 mi NW 3.5 mph - N/A   Clear
7:15 PM 64.4 °F 39.2 °F 40% 30.01 in 10.0 mi NW 3.5 mph - N/A   Clear
7:35 PM 64.4 °F 37.4 °F 37% 30.01 in 10.0 mi Calm Calm - N/A   Clear
7:55 PM 62.6 °F 39.2 °F 42% 30.01 in 10.0 mi Calm Calm - N/A   Clear
8:15 PM 62.6 °F 37.4 °F 39% 30.01 in 10.0 mi Calm Calm - N/A   Clear
8:35 PM 62.6 °F 37.4 °F 39% 30.02 in 10.0 mi NW 3.5 mph - N/A   Clear
8:55 PM 62.6 °F 37.4 °F 39% 30.02 in 10.0 mi NNW 3.5 mph - N/A   Clear
9:15 PM 62.6 °F 37.4 °F 39% 30.02 in 10.0 mi NNW 4.6 mph - N/A   Clear
9:35 PM 62.6 °F 37.4 °F 39% 30.03 in 10.0 mi Calm Calm - N/A   Clear
9:55 PM 62.6 °F 37.4 °F 39% 30.03 in 10.0 mi NNW 3.5 mph - N/A   Clear
10:15 PM 60.8 °F 37.4 °F 42% 30.03 in 10.0 mi NW 3.5 mph - N/A   Clear
10:35 PM 60.8 °F 37.4 °F 42% 30.04 in 10.0 mi NNW 4.6 mph - N/A   Clear
10:55 PM 59.0 °F 37.4 °F 45% 30.04 in 10.0 mi Calm Calm - N/A   Clear
11:15 PM 55.4 °F 39.2 °F 54% 30.03 in 10.0 mi Calm Calm - N/A   Clear
11:35 PM 59.0 °F 37.4 °F 45% 30.03 in 10.0 mi Calm Calm - N/A   Clear
11:55 PM 55.4 °F 37.4 °F 51% 30.02 in 10.0 mi Calm Calm - N/A   Clear